x

9759110 - Magueyes Islands, Pr (mgip4) Weather Station

5:18am - Wed 20th Sep 2017 All times are AST. -4 hours from GMT.

  • Wind
    24mph, 34mph gusts
  • Sea Temp 84°f
  • Air Temp 81°f
  • Sea Pressure 1001.2mb
  • 9759110 - Magueyes Islands, Pr
  • 9759110 - Magueyes Islands, Pr

More Historic Weather Station data

Upgrade to MSW Pro to gain access to the past 30 days of data for over 8000 Wavebouys and Weather Stations around the globe.

Join

Comparision Forecast

View Surf forecast
   
Wed 09/20 5:18am 24 34 mph 1001.2mb 84f 81f
5:12am 28 38 mph 1001.4mb 84f 82f
5:06am 23 39 mph 1001.2mb 84f 82f
5:00am 24 41 mph 1001.2mb 84f 81f
4:54am 21 36 mph 1001.6mb 84f 81f
4:48am 24 45 mph 1001.7mb 84f 82f
4:42am 28 41 mph 1001.7mb 84f 82f
4:36am 25 33 mph 1002.1mb 84f 81f
4:30am 22 36 mph 1002.2mb 84f 81f
4:24am 22 36 mph 1002.3mb 84f 82f
4:18am 25 33 mph 1002.6mb 84f 82f
4:12am 26 36 mph 1002.8mb 85f 82f
4:06am 23 38 mph 1002.8mb 85f 82f
4:00am 20 34 mph 1002.8mb 84f 82f
3:54am 20 30 mph 1002.9mb 85f 82f
3:48am 20 28 mph 1003.2mb 85f 82f
3:42am 17 26 mph 1003.5mb 85f 82f
3:36am 15 25 mph 1003.5mb 85f 83f
3:30am 7 24 mph 1004mb 85f 82f
3:24am 17 28 mph 1004.2mb 85f 81f
3:18am 14 22 mph 1004.4mb 85f 82f
3:12am 10 24 mph 1004.3mb 85f 82f
3:06am 8 25 mph 1004.2mb 85f 81f
3:00am 16 22 mph 1004.4mb 85f 81f
2:48am 15 29 mph 1004.6mb 85f -
2:42am 22 40 mph 1004.6mb 85f -
2:36am 24 34 mph 1004.6mb 85f -
2:30am 14 33 mph 1004.6mb 85f 82f
2:24am 11 24 mph 1004.8mb 85f 80f
2:18am 13 17 mph 1004.9mb 85f 81f
2:12am 15 21 mph 1005.2mb 85f 80f
2:06am 14 26 mph 1005.4mb 85f 80f
2:00am 14 28 mph 1005.7mb 85f 80f
1:54am 6 13 mph 1005.8mb 85f 80f
1:48am 10 15 mph 1006mb - -
1:42am 10 18 mph 1006.3mb - -
1:36am 7 10 mph 1006.4mb - -
1:30am 7 21 mph 1006.3mb 85f 80f
1:24am 16 25 mph 1006.4mb 85f 81f
1:18am 18 26 mph 1006.3mb 85f 81f
1:12am 16 23 mph 1006.5mb 85f 82f
1:06am 15 24 mph 1006.5mb 85f 82f
1:00am 13 21 mph 1006.7mb 85f 82f
12:54am 14 20 mph 1006.9mb 85f 82f
12:48am 14 21 mph 1007mb 85f 82f
12:42am 11 21 mph 1007.1mb 85f 81f
12:36am 7 11 mph 1007.4mb 85f 81f
12:30am 6 10 mph 1007.6mb 85f 81f
12:24am 7 17 mph 1007.8mb 85f 81f
12:18am 14 20 mph 1007.8mb 85f 81f
12:12am 13 16 mph 1007.8mb 86f 81f
12:06am 9 15 mph 1007.7mb 86f 81f
12:00am 11 16 mph 1008mb 86f 81f
Tue 09/19 11:54pm 13 16 mph 1008.2mb 86f 81f
11:48pm 9 14 mph 1008.3mb 86f 81f
11:42pm 10 14 mph 1008.4mb 86f 81f
11:36pm 8 15 mph 1008.5mb 86f 81f
11:30pm 11 17 mph 1008.5mb 86f 81f
11:24pm 13 16 mph 1008.5mb 86f 81f
11:18pm 11 17 mph 1008.7mb 86f 81f
11:12pm 11 17 mph 1008.7mb 86f 81f
11:06pm 9 14 mph 1008.7mb 86f 81f
11:00pm 10 15 mph 1008.8mb 86f 81f
10:54pm 11 17 mph 1008.9mb 86f 81f
10:48pm 13 20 mph 1009mb 86f 82f
10:42pm 8 16 mph 1009.1mb 86f 82f
10:36pm 6 10 mph 1009.3mb 86f 81f
10:30pm 8 15 mph 1009.1mb 86f 81f
10:24pm 9 14 mph 1009.1mb 86f 82f
10:18pm 10 16 mph 1009.2mb 86f 82f
10:12pm 10 14 mph 1009.4mb 86f 82f
10:06pm 11 16 mph 1009.5mb 86f 82f
10:00pm 10 18 mph 1009.4mb 86f 82f
9:48pm 14 20 mph 1009.4mb 86f 82f
9:42pm 13 20 mph 1009.3mb 86f 81f
9:36pm 10 13 mph 1009.4mb 86f 81f
9:30pm 13 14 mph 1009.4mb 86f 81f
9:24pm 13 17 mph 1009.5mb 86f 81f
9:18pm 11 16 mph 1009.5mb 86f 81f
9:12pm 10 15 mph 1009.6mb 86f 81f
9:06pm 13 17 mph 1009.6mb 86f 81f
9:00pm 14 17 mph 1009.6mb 86f 81f
8:54pm 11 15 mph 1009.6mb 86f 81f
8:48pm 14 20 mph 1009.6mb 86f 81f
8:42pm 13 15 mph 1009.7mb 86f 81f
8:36pm 13 15 mph 1009.7mb 86f 81f
8:30pm 11 15 mph 1009.7mb 86f 81f
8:24pm 11 15 mph 1009.8mb 86f 81f
8:18pm 10 15 mph 1009.7mb 86f 81f
8:12pm 11 14 mph 1009.8mb 86f 81f
8:06pm 14 16 mph 1009.7mb 86f 81f
8:00pm 14 15 mph 1009.6mb 86f 81f
7:54pm 14 17 mph 1009.7mb 86f 81f
7:48pm 13 18 mph 1009.6mb 86f 81f
7:42pm 14 20 mph 1009.7mb 86f 81f
7:36pm 13 15 mph 1009.7mb 86f 82f
7:30pm 11 16 mph 1009.6mb 86f 82f
7:24pm 9 13 mph 1009.6mb 86f 82f
7:18pm 8 15 mph 1009.7mb 86f 82f
7:12pm 9 13 mph 1009.7mb 86f 82f
7:06pm 10 14 mph 1009.8mb 86f 83f
7:00pm 8 14 mph 1009.9mb 86f 83f
6:54pm 11 16 mph 1009.8mb 86f 83f
6:48pm 9 14 mph 1009.7mb 86f 83f
6:42pm 7 13 mph 1009.7mb 86f 83f
6:36pm 8 15 mph 1009.7mb 86f 83f
6:30pm 8 14 mph 1009.7mb 86f 83f
6:24pm 10 15 mph 1009.7mb 86f 84f
6:18pm 8 11 mph 1009.9mb 86f 84f
6:12pm 6 10 mph 1009.8mb 86f 84f
6:06pm 6 9 mph 1009.9mb 86f 84f
6:00pm 3 9 mph 1009.8mb 86f 84f
5:54pm 6 11 mph 1009.8mb 86f 84f
5:48pm 7 10 mph 1009.8mb 86f 84f
5:42pm 7 10 mph 1009.8mb 86f 84f
5:36pm 8 11 mph 1009.8mb 86f 85f
5:30pm 8 10 mph 1009.8mb 86f 85f
5:24pm 7 10 mph 1009.7mb 86f 85f
5:18pm 7 10 mph 1009.6mb 86f 85f
5:12pm 8 14 mph 1009.6mb 86f 85f
5:06pm 9 16 mph 1009.7mb 86f 85f
5:00pm 10 15 mph 1009.8mb 86f 85f
4:54pm 8 11 mph 1009.7mb 86f 85f
4:48pm 6 10 mph 1009.9mb 86f 85f
4:42pm 7 9 mph 1009.9mb 86f 85f
4:36pm 7 8 mph 1009.8mb 86f 85f
4:30pm 7 9 mph 1009.8mb 86f 85f
4:24pm 8 13 mph 1009.8mb 86f 85f
4:18pm 8 11 mph 1009.8mb 86f 85f
4:12pm 6 9 mph 1009.9mb 86f 85f
4:06pm 6 8 mph 1009.9mb 86f 85f
4:00pm 7 11 mph 1009.8mb 86f 85f
3:54pm 7 9 mph 1009.8mb 86f 85f
3:48pm 7 11 mph 1009.8mb 86f 85f
3:42pm 7 9 mph 1009.9mb 86f 85f
3:36pm 7 13 mph 1009.9mb 86f 85f
3:30pm 7 11 mph 1009.9mb 86f 84f
3:24pm 7 11 mph 1009.8mb 86f 85f
3:18pm 7 14 mph 1009.7mb 86f 83f
3:12pm 7 10 mph 1009.7mb 86f 82f
3:06pm 8 10 mph 1009.7mb 86f 82f
3:00pm 9 14 mph 1009.9mb 86f 81f
2:54pm 9 18 mph 1010.2mb 86f 81f
2:48pm 5 9 mph 1010.4mb 87f 84f
2:42pm 8 13 mph 1010mb 86f 84f
2:36pm 7 11 mph 1010.1mb 86f 85f
2:30pm 7 10 mph 1010.1mb 86f 85f
2:24pm 6 8 mph 1010mb 86f 87f
2:18pm 6 10 mph 1010.2mb 86f 87f
2:12pm 7 17 mph 1010.1mb 86f 88f
2:06pm 11 18 mph 1010.1mb 87f 90f
2:00pm 10 16 mph 1010mb 86f 90f
1:54pm 10 17 mph 1010mb 87f 90f
1:48pm 8 16 mph 1010.1mb 87f 90f
1:42pm 8 13 mph 1010.1mb 87f 90f
1:36pm 14 17 mph 1010.1mb 86f 89f
1:30pm 8 13 mph 1010.2mb 86f 90f
1:24pm 1 6 mph 1010.2mb 86f 88f
1:18pm 2 6 mph 1010.4mb 86f 89f
1:12pm 2 6 mph 1010.5mb 86f 89f
1:06pm 5 8 mph 1010.7mb 86f 88f
1:00pm 6 9 mph 1010.9mb 86f 86f
12:54pm 7 9 mph 1011mb 86f 85f
12:48pm 6 9 mph 1011.2mb 86f 84f
12:42pm 6 9 mph 1011.3mb 86f 84f
12:36pm 6 15 mph 1011.6mb 86f 86f
12:30pm 8 15 mph 1011.5mb 86f 88f
12:24pm  -  6 mph 1011.5mb 86f 88f
12:18pm 6 7 mph 1011.5mb 86f 88f
12:12pm 5 7 mph 1011.6mb 86f 89f
12:06pm 5 5 mph 1011.7mb 86f 88f
12:00pm 3 6 mph 1011.7mb 86f 89f
11:54am 2 7 mph 1011.8mb 86f 89f
11:48am 3 7 mph 1011.8mb 86f 89f
11:42am 3 6 mph 1011.9mb 86f 89f
11:36am 3 7 mph 1012.1mb 86f 90f
11:30am 3 6 mph 1012.1mb 86f 90f
11:24am 5 8 mph 1012.2mb 86f 90f
11:18am 3 7 mph 1012.3mb 86f 89f
11:12am 2 7 mph 1012.3mb 86f 89f
11:06am 2 9 mph 1012.4mb 86f 88f
11:00am 7 10 mph 1012.4mb 86f 88f
10:54am 1 7 mph 1012.5mb 86f 89f
10:48am 6 8 mph 1012.5mb 86f 88f
10:42am 7 9 mph 1012.5mb 86f 87f
10:36am 3 6 mph 1012.5mb 86f 88f
10:30am 6 9 mph 1012.5mb 86f 87f
10:24am 7 10 mph 1012.5mb 86f 87f
10:18am 7 10 mph 1012.6mb 86f 87f
10:12am 7 9 mph 1012.6mb 86f 87f
10:06am 7 10 mph 1012.6mb 86f 87f
10:00am 7 10 mph 1012.6mb 86f 87f
9:54am 7 8 mph 1012.6mb 86f 86f
9:48am 8 11 mph 1012.6mb 86f 86f
9:42am 9 11 mph 1012.6mb 86f 86f
9:36am 6 8 mph 1012.7mb 86f 86f
9:30am 6 10 mph 1012.6mb 86f 86f
9:24am 7 10 mph 1012.5mb 86f 85f
9:18am 7 9 mph 1012.6mb 86f 85f
9:12am 8 10 mph 1012.6mb 86f 85f
9:06am 7 10 mph 1012.6mb 86f 85f
9:00am 7 10 mph 1012.5mb 86f 85f
8:54am 6 8 mph 1012.6mb 86f 85f
8:48am 6 10 mph 1012.6mb 86f 85f
8:42am 7 11 mph 1012.6mb 86f 84f
8:36am 7 10 mph 1012.6mb 86f 84f
8:30am 7 11 mph 1012.6mb 86f 84f
8:24am 6 8 mph 1012.5mb 86f 84f
8:18am 7 8 mph 1012.5mb 86f 83f
8:12am 5 7 mph 1012.5mb 86f 83f
8:06am 3 7 mph 1012.4mb 86f 83f
8:00am 6 7 mph 1012.3mb 86f 83f
7:54am 3 6 mph 1012.2mb 86f 82f
7:48am 5 6 mph 1012.1mb 86f 81f
7:42am 3 6 mph 1012mb 86f 81f
7:36am 6 7 mph 1011.8mb 86f 81f
7:30am 5 6 mph 1011.7mb 86f 80f
7:24am 1 5 mph 1011.7mb 86f 80f
7:18am 3 5 mph 1011.6mb 86f 80f
7:12am 2 5 mph 1011.4mb 86f 80f
7:06am 3 6 mph 1011.3mb 86f 80f
7:00am 5 8 mph 1011.2mb 86f 80f
6:54am 5 6 mph 1011.2mb 86f 80f
6:48am 5 6 mph 1011.2mb 86f 80f
6:42am 5 7 mph 1011.1mb 86f 79f
6:36am 3 7 mph 1011.1mb 86f 79f
6:30am 3 6 mph 1011.1mb 86f 79f
6:24am 6 7 mph 1011mb 86f 79f
6:18am 6 8 mph 1011.1mb 86f 79f
6:12am 5 8 mph 1011mb 86f 79f
6:06am 6 10 mph 1011mb 86f 79f
6:00am 6 9 mph 1010.9mb 86f 79f
5:54am 6 7 mph 1010.9mb 86f 79f
5:48am 3 6 mph 1010.9mb 86f 79f
5:42am 3 8 mph 1010.8mb 86f 79f
5:36am 7 8 mph 1010.9mb 86f 79f
5:30am 5 7 mph 1010.9mb 86f 79f
5:24am 5 7 mph 1010.9mb 86f 79f
5:18am 5 8 mph 1010.8mb 86f 79f
5:12am 3 7 mph 1010.8mb 86f 78f
5:06am 3 6 mph 1010.8mb 86f 78f
5:00am 3 6 mph 1010.8mb 86f 78f
4:54am 2 6 mph 1010.8mb 86f 78f
4:48am 5 8 mph 1010.7mb 86f 78f
4:42am 6 9 mph 1010.7mb 86f 78f
4:36am 5 8 mph 1010.7mb 86f 79f
4:30am 5 8 mph 1010.8mb 86f 79f
4:24am 3 7 mph 1010.8mb 86f 79f
4:18am 6 8 mph 1010.8mb 86f 79f
4:12am 5 7 mph 1010.8mb 86f 79f
4:06am 5 6 mph 1010.8mb 86f 79f
4:00am 3 7 mph 1010.7mb 86f 79f
3:54am 3 7 mph 1010.7mb 86f 79f
3:48am 3 6 mph 1010.7mb 86f 79f
3:42am 3 6 mph 1010.7mb 86f 79f
3:36am 6 8 mph 1010.8mb 86f 79f
3:30am 3 5 mph 1010.8mb 86f 79f
3:24am 3 5 mph 1010.7mb 86f 79f
3:18am 3 5 mph 1010.8mb 86f 79f
3:12am 3 5 mph 1010.8mb 86f 79f
3:06am 3 6 mph 1010.9mb 86f 78f
3:00am 3 7 mph 1011mb 86f 78f
2:54am 5 7 mph 1011mb 86f 79f
2:48am 5 7 mph 1011.2mb 86f -
2:42am 5 6 mph 1011.2mb 86f -
2:36am 5 8 mph 1011.2mb 86f -
2:30am 3 7 mph 1011.3mb 86f 79f
2:24am 6 7 mph 1011.4mb 86f 79f
2:18am 5 6 mph 1011.5mb 86f 79f
2:12am 5 6 mph 1011.6mb 86f 78f
2:06am 3 6 mph 1011.7mb 86f 78f
2:00am 3 7 mph 1011.8mb 86f 79f
1:54am 5 6 mph 1011.9mb 86f 79f
1:48am 2 5 mph 1012mb 86f 79f
1:42am 2 2 mph 1012mb 86f 79f
1:36am 2 9 mph 1012.1mb 86f 79f
1:30am 5 7 mph 1012.2mb 86f 79f
1:24am 1 1 mph 1012.3mb 86f 79f
1:18am 1 3 mph 1012.4mb 86f 79f
1:12am 2 5 mph 1012.4mb 87f 79f
1:06am 3 5 mph 1012.5mb 87f 79f
1:00am 2 5 mph 1012.6mb 87f 79f
12:54am 2 5 mph 1012.7mb 87f 80f
12:48am 3 3 mph 1012.8mb 87f 80f
12:42am 1 2 mph 1012.8mb 87f 79f
12:36am 2 6 mph 1012.8mb 87f 80f
12:30am 3 6 mph 1012.9mb 87f 80f
12:24am 2 6 mph 1012.9mb 87f 80f
12:18am 5 7 mph 1013mb 87f 80f
12:12am 5 7 mph 1013mb 87f 80f
12:06am 3 6 mph 1013mb 87f 80f
12:00am 3 5 mph 1013.1mb 87f 80f
Mon 09/18 11:54pm 2 5 mph 1013.1mb 87f 80f
11:48pm 3 5 mph 1013.2mb 87f 80f
11:42pm 2 6 mph 1013.2mb 87f 80f
11:36pm 5 7 mph 1013.2mb 87f 80f
11:30pm 5 7 mph 1013.3mb 87f 80f
11:24pm 5 6 mph 1013.4mb 87f 80f
11:18pm 3 6 mph 1013.4mb 87f 80f
11:12pm 2 6 mph 1013.3mb 87f 80f
11:06pm 3 5 mph 1013.2mb 87f 80f
11:00pm 1 3 mph 1013.2mb 87f 80f
10:54pm 3 5 mph 1013.2mb 87f 80f
10:48pm 5 6 mph 1013.3mb 87f 80f
10:42pm 5 7 mph 1013.3mb 87f 80f
10:36pm 3 6 mph 1013.3mb 87f 80f
10:30pm 3 7 mph 1013.3mb 87f 80f
10:24pm 5 6 mph 1013.3mb 87f 80f
10:18pm 5 7 mph 1013.3mb 87f 80f
10:12pm 5 7 mph 1013.3mb 87f 81f
10:06pm 3 6 mph 1013.3mb 87f 81f
10:00pm 3 6 mph 1013.3mb 87f 82f
9:54pm 5 5 mph 1013.3mb 87f 82f
9:48pm 3 5 mph 1013.3mb 87f 81f
9:42pm 3 5 mph 1013.3mb 87f 81f
9:36pm 2 3 mph 1013.4mb 87f 81f
9:30pm 2 3 mph 1013.4mb 87f 81f
9:24pm 1 3 mph 1013.3mb 87f 81f
9:18pm 2 5 mph 1013.4mb 87f 81f
9:12pm 3 5 mph 1013.4mb 87f 81f
9:06pm 2 6 mph 1013.4mb 87f 81f
9:00pm 5 6 mph 1013.3mb 87f 82f
8:54pm 3 5 mph 1013.4mb 87f 82f
8:48pm 3 5 mph 1013.3mb 87f 82f
8:42pm 2 3 mph 1013.2mb 87f 82f
8:36pm 2 3 mph 1013mb 87f 83f
8:30pm 2 5 mph 1012.9mb 87f 82f
8:24pm 2 3 mph 1012.9mb 87f 82f
8:18pm 2 3 mph 1012.8mb 87f 82f
8:12pm 2 2 mph 1012.7mb 87f 82f
8:06pm 1 3 mph 1012.5mb 87f 82f
8:00pm 3 5 mph 1012.4mb 87f 83f
7:54pm 3 3 mph 1012.3mb 87f 82f
7:48pm 1 2 mph - - -
7:42pm 1 3 mph - - -
7:36pm 3 5 mph - - -
7:30pm 2 5 mph 1012.2mb 87f 81f
7:24pm 1 3 mph 1012.2mb 87f 81f
7:18pm 3 7 mph 1012.2mb 87f 81f
7:12pm 5 7 mph 1012.1mb 87f 81f
7:06pm 3 7 mph 1012.1mb 87f 81f
7:00pm 5 7 mph 1011.9mb 87f 81f
6:54pm 3 6 mph 1011.9mb 87f 81f
6:48pm 3 5 mph 1011.8mb 87f 81f
6:42pm 2 5 mph 1011.8mb 87f 81f
6:36pm 3 6 mph 1011.7mb 87f 81f
6:30pm 5 7 mph 1011.7mb 87f 81f
6:24pm 5 7 mph 1011.5mb 87f 81f
6:18pm 6 8 mph 1011.5mb 87f 81f
6:12pm 6 8 mph 1011.6mb 87f 81f
6:06pm 2 6 mph 1011.5mb 87f 82f
6:00pm 3 6 mph 1011.4mb 87f 82f
5:54pm 5 8 mph 1011.4mb 87f 82f
5:48pm 5 8 mph 1011.4mb 87f 82f
5:42pm 6 9 mph 1011.2mb 87f 82f
5:36pm 6 8 mph 1011.2mb 87f 82f
5:30pm 2 3 mph 1011.2mb 87f 82f
5:24pm 2 5 mph 1011.3mb 87f 82f
5:18pm 2 5 mph 1011.4mb 87f 82f
5:12pm 6 7 mph 1011.4mb 87f 81f
5:06pm 5 8 mph 1011.4mb 87f 80f
5:00pm 2 6 mph 1011.5mb 87f 80f
4:54pm 5 7 mph 1011.6mb 87f 80f
4:48pm  -  5 mph 1011.6mb 87f 80f
4:42pm 5 7 mph 1011.6mb 87f 80f
4:36pm 2 9 mph 1011.5mb 87f 79f
4:30pm 5 7 mph 1011.4mb 87f 79f
4:24pm 1 5 mph 1011.4mb 87f 79f
4:18pm 5 13 mph 1011.5mb 87f 79f
4:12pm 5 10 mph 1011.7mb 87f 79f
4:06pm 6 11 mph 1011.7mb 87f 79f
4:00pm 3 10 mph 1011.6mb 87f 80f
3:54pm 3 9 mph 1011.6mb 87f 80f
3:48pm 6 10 mph 1011.6mb 87f 80f
3:42pm 8 16 mph 1011.6mb 87f 80f
3:36pm 8 14 mph 1011.7mb 87f 80f
3:30pm 8 15 mph 1011.6mb 87f 82f
3:24pm 7 9 mph 1011.5mb 87f 86f
3:18pm 7 9 mph 1011.4mb 87f 86f
3:12pm 6 10 mph 1011.4mb 87f 86f
3:06pm 7 8 mph 1011.3mb 87f 86f
3:00pm 8 9 mph 1011mb 87f 86f
2:54pm 8 10 mph 1010.9mb 87f 86f
2:48pm 8 10 mph 1010.8mb 87f 86f
2:42pm 8 10 mph 1010.9mb 87f 86f
2:36pm 7 9 mph 1011mb 87f 86f
2:30pm 7 9 mph 1011mb 87f 86f
2:24pm 6 9 mph 1011.1mb 87f 86f
2:18pm 7 9 mph 1011.2mb 87f 87f
2:12pm 8 9 mph 1011.1mb 87f 87f
2:06pm 7 8 mph 1011.2mb 87f 87f
2:00pm 8 10 mph 1011.3mb 87f 87f
1:54pm 8 9 mph 1011.4mb 87f 86f
1:48pm 7 9 mph 1011.4mb 87f 87f
1:42pm 7 8 mph 1011.5mb 87f 86f
1:36pm 7 8 mph 1011.6mb 87f 86f
1:30pm 5 7 mph 1011.7mb 87f 86f
1:24pm 6 7 mph 1011.8mb 87f 86f
1:18pm 6 8 mph 1011.8mb 87f 86f
1:12pm 6 8 mph 1011.9mb 87f 86f
1:06pm 7 9 mph 1012mb 87f 85f
1:00pm 7 9 mph 1012.1mb 87f 85f
12:54pm 7 9 mph 1012.1mb 87f 85f
12:48pm 7 9 mph 1012.1mb 87f 85f
12:42pm 8 9 mph 1012.3mb 87f 85f
12:36pm 8 9 mph 1012.4mb 86f 85f
12:30pm 8 9 mph 1012.4mb 86f 86f
12:24pm 8 9 mph 1012.5mb 86f 86f
12:18pm 8 9 mph 1012.5mb 86f 86f
12:12pm 8 9 mph 1012.6mb 86f 86f
12:06pm 8 10 mph 1012.6mb 86f 86f
12:00pm 8 9 mph 1012.7mb 86f 86f
11:54am 6 9 mph 1012.7mb 86f 86f
11:48am 6 10 mph 1012.8mb 86f 86f
11:42am 5 8 mph 1013mb 86f 86f
11:36am 7 9 mph 1013.1mb 86f 86f
11:30am 8 11 mph 1013.1mb 86f 86f
11:24am 8 14 mph 1013.2mb 86f 86f
11:18am 10 14 mph 1013.3mb 86f 86f
11:12am 10 14 mph 1013.5mb 86f 86f
11:06am 10 14 mph 1013.6mb 86f 86f
11:00am 10 14 mph 1013.7mb 86f 86f
10:54am 10 14 mph 1013.6mb 86f 86f
10:48am 8 13 mph 1013.7mb 86f 86f
10:42am 9 13 mph 1013.7mb 86f 86f
10:36am 8 11 mph 1013.6mb 86f 87f
10:30am 8 13 mph 1013.7mb 86f 86f
10:24am 6 11 mph 1013.7mb 86f 86f
10:18am 7 9 mph 1013.8mb 86f 87f
10:12am 5 7 mph 1013.7mb 86f 87f
10:06am 7 8 mph 1013.7mb 86f 86f
10:00am 6 8 mph 1013.8mb 86f 87f
9:54am 6 8 mph 1013.8mb 86f 87f
9:48am 6 8 mph 1013.7mb 86f 86f
9:42am 6 7 mph 1013.6mb 86f 86f
9:36am 5 7 mph 1013.6mb 86f 87f
9:30am 5 7 mph 1013.7mb 86f 87f
9:24am 6 6 mph 1013.8mb 85f 87f
9:18am 5 6 mph 1013.9mb 85f 87f
9:12am 5 6 mph 1013.9mb 85f 87f
9:06am 5 6 mph 1013.9mb 85f 86f
9:00am 5 6 mph 1013.9mb 85f 86f
8:54am 3 6 mph 1013.9mb 85f 86f
8:48am 5 6 mph 1013.9mb 85f 86f
8:42am 3 5 mph 1013.8mb 85f 87f
8:36am 2 5 mph 1013.8mb 85f 87f
8:30am 2 5 mph 1013.8mb 85f 86f
8:24am 2 5 mph 1013.7mb 85f 86f
8:18am 2 3 mph 1013.7mb 85f 87f
8:12am  -  2 mph 1013.8mb 85f 88f
8:06am 1 2 mph 1013.7mb 85f 86f
8:00am 1 2 mph 1013.6mb 85f 86f
7:54am 1 3 mph 1013.7mb 85f 85f
7:48am 3 6 mph 1013.7mb 85f 84f
7:42am 2 3 mph 1013.6mb 85f 84f
7:36am 1 2 mph 1013.6mb 85f 84f
7:30am  -  1 mph 1013.6mb 85f 83f
7:24am  -  5 mph 1013.6mb 85f 82f
7:18am 2 5 mph 1013.5mb 85f 81f
7:12am 2 5 mph 1013.3mb 85f 81f
7:06am 3 6 mph 1013.3mb 85f 80f
7:00am 2 3 mph 1013.3mb 85f 80f
6:54am 3 8 mph 1013.1mb 85f 80f
6:48am 5 6 mph 1013.1mb 86f 80f
6:42am 2 3 mph 1013mb 86f 79f
6:36am 2 2 mph 1013mb 86f 79f
6:30am 1 2 mph 1013mb 86f 79f
6:24am 1 2 mph 1013mb 86f 79f
6:18am  -  2 mph 1012.9mb 86f 79f
6:12am 1 2 mph 1012.9mb 86f 79f
6:06am 2 3 mph 1012.9mb 86f 78f
6:00am 2 2 mph 1013mb 86f 79f
5:54am 2 2 mph 1012.9mb 86f 79f
5:48am 2 3 mph 1012.9mb 86f 79f
5:42am 2 5 mph 1012.9mb 86f 78f
5:36am 2 3 mph 1013mb 86f 78f
5:30am 3 5 mph 1012.9mb 86f 78f
5:24am 3 5 mph 1012.9mb 86f 78f
5:18am 1 5 mph 1013mb 86f 78f
5:12am 2 6 mph 1013mb 86f 78f
5:06am 3 6 mph 1013.1mb 86f 78f
5:00am 3 6 mph 1013.1mb 86f 78f
4:54am 5 6 mph 1013.1mb 86f 78f
4:48am 3 5 mph 1013.1mb 86f 78f
4:42am 3 5 mph 1013.1mb 86f 78f
4:36am 3 6 mph 1013.1mb 86f 79f
4:30am 3 6 mph 1013.1mb 86f 79f
4:24am 1 3 mph 1013mb 86f 79f
4:18am 2 3 mph 1012.9mb 86f 79f
4:12am 2 5 mph 1012.8mb 86f 79f
4:06am 3 5 mph 1012.9mb 86f 79f
4:00am 3 5 mph 1012.9mb 86f 79f
3:54am 5 6 mph 1012.8mb 86f 79f
3:48am 2 2 mph 1012.7mb 86f 80f
3:42am  -  1 mph 1012.7mb 86f 80f
3:36am  -  2 mph 1012.8mb 86f 80f
3:30am  -  2 mph 1012.8mb 86f 80f
3:24am 1 2 mph 1012.9mb 86f 80f
3:18am  -  1 mph 1012.9mb 86f 80f
3:12am  -  2 mph 1013mb 86f 80f
3:06am  -  2 mph 1012.9mb 86f 80f
3:00am 1 2 mph 1013mb 86f 80f
2:54am  -  2 mph 1013mb 86f 81f
2:48am  -  2 mph 1013.1mb - -
2:42am 1 2 mph 1013.1mb - -
2:36am 1 2 mph 1013mb - -
2:30am  -  2 mph 1013mb 86f 81f
2:24am 1 2 mph 1013.1mb 86f 81f
2:18am 1 2 mph 1013.1mb 86f 81f
2:12am  -  2 mph 1013.1mb 86f 80f
2:06am 1 2 mph 1013.2mb 86f 81f
2:00am 2 3 mph 1013.2mb 86f 81f
1:54am  -  2 mph 1013.3mb 86f 81f
1:48am 2 3 mph 1013.4mb 86f 81f
1:42am 2 3 mph 1013.4mb 86f 80f
1:36am 2 2 mph 1013.4mb 86f 80f
1:30am  -  3 mph 1013.4mb 86f 80f
1:24am 2 5 mph 1013.5mb 86f 80f
1:18am 3 5 mph 1013.5mb 86f 80f
1:12am 2 3 mph 1013.5mb 86f 80f
1:06am  -  2 mph 1013.6mb 86f 81f
1:00am 1 2 mph 1013.7mb 86f 80f
12:54am 1 5 mph 1013.8mb 86f 80f
12:48am 3 5 mph 1013.9mb 86f 80f
12:42am 3 6 mph 1013.9mb 86f 80f
12:36am 3 6 mph 1013.9mb 86f 80f
12:30am 3 5 mph 1014mb 86f 80f
12:24am 2 3 mph 1014mb 86f 81f
12:18am  -  1 mph 1014.1mb 86f 82f
12:12am 1 1 mph 1014.2mb 86f 81f
12:06am 1 2 mph 1014.3mb 86f 82f
12:00am 1 2 mph 1014.4mb 86f 82f
Sun 09/17 11:54pm 2 3 mph 1014.4mb 86f 82f
11:48pm 2 3 mph 1014.5mb 86f 82f
11:42pm 1 3 mph 1014.5mb 86f 82f
11:36pm  -  1 mph 1014.6mb 86f 83f
11:30pm  -  2 mph 1014.5mb 86f 83f
11:24pm 1 2 mph 1014.6mb 86f 82f
11:18pm  -  2 mph 1014.7mb 86f 82f
11:12pm  -  2 mph 1014.7mb 86f 83f
11:06pm 2 5 mph 1014.7mb 86f 82f
11:00pm 1 6 mph 1014.7mb 86f 83f
10:54pm 2 3 mph 1014.7mb 86f 83f
10:48pm 1 5 mph 1014.8mb 86f 83f
10:42pm 2 3 mph 1014.7mb 86f 83f
10:36pm  -  1 mph 1014.8mb 86f 83f
10:30pm  -  2 mph 1014.8mb 86f 83f
10:24pm 2 2 mph 1014.8mb 86f 82f
10:18pm 2 5 mph 1014.8mb 86f 82f
10:12pm 2 5 mph 1014.8mb 86f 82f
10:06pm 5 5 mph 1014.7mb 86f 82f
10:00pm 3 6 mph 1014.6mb 86f 82f
9:54pm 3 6 mph 1014.6mb 86f 82f
9:48pm 3 5 mph 1014.5mb 86f 82f
9:42pm 1 3 mph 1014.4mb 86f 83f
9:36pm 1 2 mph 1014.4mb 86f 83f
9:30pm 1 3 mph 1014.4mb 86f 82f
9:24pm 1 3 mph 1014.3mb 86f 82f
9:18pm 1 5 mph 1014.2mb 86f 82f
9:12pm 2 3 mph 1014.1mb 86f 83f
9:06pm 2 3 mph 1014.1mb 86f 83f
9:00pm 3 5 mph 1014.1mb 86f 83f
8:54pm 2 3 mph 1014.1mb 86f 83f
8:48pm 2 5 mph 1014mb 86f 84f
8:42pm  -  6 mph 1014mb 86f 84f
8:36pm 2 3 mph 1013.9mb 86f 84f
8:30pm  -  2 mph 1013.8mb 86f 84f
8:24pm  -  1 mph 1013.6mb 86f 84f
8:18pm  -  2 mph 1013.5mb 86f 84f
8:12pm  -  1 mph 1013.5mb 86f 84f
8:06pm  -  1 mph 1013.4mb 86f 84f
8:00pm  -  2 mph 1013.3mb 86f 84f
7:54pm 1 2 mph 1013.3mb 86f 84f
7:48pm 1 2 mph 1013.3mb 86f 84f
7:42pm 1 2 mph 1013.2mb 86f 84f
7:36pm 2 2 mph 1013.1mb 86f 84f
7:30pm 2 2 mph 1013mb 86f 84f
7:24pm 1 1 mph 1012.9mb 86f 85f
7:18pm  -  2 mph 1012.9mb 86f 85f
7:12pm  -  1 mph 1012.9mb 86f 84f
7:06pm  -  2 mph 1012.8mb 86f 84f
7:00pm 1 5 mph 1012.8mb 86f 85f
6:54pm 2 3 mph 1012.8mb 86f 85f
6:48pm 2 2 mph 1012.7mb 86f 85f
6:42pm 1 2 mph 1012.6mb 86f 85f
6:36pm 2 3 mph 1012.6mb 86f 85f
6:30pm  -  3 mph 1012.6mb 86f 86f
6:24pm 2 6 mph 1012.6mb 86f 86f
6:18pm 3 6 mph 1012.6mb 86f 87f
6:12pm 2 5 mph 1012.6mb 86f 87f
6:06pm 1 3 mph 1012.5mb 86f 87f
6:00pm 2 3 mph 1012.4mb 86f 88f
5:54pm 3 3 mph 1012.5mb 86f 88f
5:48pm 3 5 mph 1012.5mb 86f 88f
5:42pm 3 5 mph 1012.4mb 86f 88f
5:36pm 3 6 mph 1012.3mb 86f 88f
5:30pm 2 3 mph 1012.3mb 86f 88f
5:24pm 2 8 mph 1012.2mb 86f 88f
5:18pm 5 8 mph 1012.2mb 86f 88f
5:12pm 6 9 mph 1012.2mb 86f 88f
5:06pm 5 7 mph 1012.2mb 86f 88f
5:00pm 6 7 mph 1012.3mb 86f 88f
4:54pm 3 7 mph 1012.3mb 86f 87f
4:48pm 5 8 mph 1012.3mb 86f 87f
4:42pm 3 7 mph 1012.3mb 86f 87f
4:36pm 5 8 mph 1012.3mb 86f 87f
4:30pm 6 9 mph 1012.3mb 86f 87f
4:24pm 8 11 mph 1012.3mb 86f 87f
4:18pm 9 13 mph 1012.2mb 86f 87f
4:12pm 9 11 mph 1012.2mb 86f 87f
4:06pm 9 13 mph 1012.2mb 86f 87f
4:00pm 9 13 mph 1012.4mb 86f 87f
3:54pm 10 14 mph 1012.4mb 86f 87f
3:48pm 10 14 mph 1012.3mb 86f 87f
3:42pm 9 14 mph 1012.4mb 86f 87f
3:36pm 9 13 mph 1012.4mb 86f 87f
3:30pm 9 13 mph 1012.5mb 86f 87f
3:24pm 10 14 mph 1012.6mb 86f 87f
3:18pm 8 11 mph 1012.8mb 86f 88f
3:12pm 7 10 mph 1012.8mb 86f 87f
3:06pm 8 10 mph 1012.8mb 86f 87f
3:00pm 6 11 mph 1012.8mb 86f 87f
2:54pm 7 11 mph 1012.7mb 86f 87f
2:48pm 8 11 mph 1012.5mb 86f 87f
2:42pm 7 11 mph 1012.5mb 86f 87f
2:36pm 8 10 mph 1012.3mb 86f 87f
2:30pm 8 10 mph 1012.4mb 86f 87f
2:24pm 8 11 mph 1012.4mb 86f 87f
2:18pm 8 13 mph 1012.3mb 86f 87f
2:12pm 7 13 mph 1012.5mb 86f 87f
2:06pm 9 13 mph 1012.7mb 86f 87f
2:00pm 7 13 mph 1012.7mb 86f 87f
1:54pm 7 11 mph 1012.8mb 86f 87f
1:48pm 7 13 mph 1012.9mb 86f 87f
1:42pm 8 13 mph 1012.9mb 86f 87f
1:36pm 10 13 mph 1013mb 86f 86f
1:30pm 9 11 mph 1013.1mb 86f 87f
1:24pm 9 14 mph 1013.2mb 86f 86f
1:18pm 10 13 mph 1013.3mb 86f 86f
1:12pm 9 14 mph 1013.4mb 86f 87f
1:06pm 10 14 mph 1013.5mb 86f 87f
1:00pm 10 14 mph 1013.5mb 86f 86f
12:54pm 10 15 mph 1013.6mb 86f 86f
12:48pm 11 15 mph 1013.7mb 86f 87f
12:42pm 10 15 mph 1013.7mb 86f 87f
12:36pm 10 16 mph 1013.9mb 86f 86f
12:30pm 11 15 mph 1014mb 85f 86f
12:24pm 10 14 mph 1014.1mb 85f 86f
12:18pm 11 16 mph 1014.1mb 85f 86f
12:12pm 10 14 mph 1014.2mb 85f 86f
12:06pm 10 14 mph 1014.3mb 85f 86f
12:00pm 9 13 mph 1014.4mb 85f 86f
11:54am 10 15 mph 1014.4mb 85f 86f
11:48am 10 14 mph 1014.4mb 85f 86f
11:42am 10 14 mph 1014.6mb 85f 86f
11:36am 10 14 mph 1014.6mb 85f 86f
11:30am 9 14 mph 1014.6mb 85f 86f
11:24am 10 13 mph 1014.6mb 85f 86f
11:18am 9 14 mph 1014.6mb 85f 86f
11:12am 9 14 mph 1014.7mb 85f 86f
11:06am 10 13 mph 1014.7mb 85f 86f
11:00am 9 14 mph 1014.8mb 85f 87f
10:54am 9 13 mph 1014.9mb 85f 87f
10:48am 10 14 mph 1014.9mb 85f 87f
10:42am 9 14 mph 1014.9mb 85f 87f
10:36am 10 15 mph 1014.8mb 85f 87f
10:30am 9 13 mph 1014.8mb 85f 87f
10:24am 8 14 mph 1014.8mb 85f 87f
10:18am 9 13 mph 1014.8mb 85f 87f
10:12am 7 13 mph 1014.8mb 85f 87f
10:06am 8 13 mph 1014.8mb 85f 87f
10:00am 7 11 mph 1014.7mb 85f 87f
9:54am 8 13 mph 1014.7mb 85f 87f
9:48am 8 11 mph 1014.7mb 85f 87f
9:42am 6 11 mph 1014.8mb 85f 88f
9:36am 3 11 mph 1014.7mb 85f 88f
9:30am 2 8 mph 1014.6mb 85f 88f
9:24am 3 9 mph 1014.6mb 85f 88f
9:18am 5 9 mph 1014.6mb 85f 88f
9:12am 3 8 mph 1014.6mb 85f 88f
9:06am 6 9 mph 1014.6mb 85f 87f
9:00am 5 9 mph 1014.5mb 85f 87f
8:54am 6 9 mph 1014.5mb 85f 87f
8:48am 5 9 mph 1014.6mb 85f 87f
8:42am 5 9 mph 1014.5mb 85f 87f
8:36am 3 9 mph 1014.5mb 85f 86f
8:30am 6 10 mph 1014.5mb 85f 86f
8:24am 5 8 mph 1014.4mb 84f 86f
8:18am 2 7 mph 1014.4mb 84f 86f
8:12am 5 8 mph 1014.4mb 84f 86f
8:06am 6 8 mph 1014.4mb 84f 86f
8:00am 5 7 mph 1014.4mb 84f 86f
7:54am 3 9 mph 1014.3mb 84f 86f
7:48am 3 9 mph 1014.2mb 85f 85f
7:42am 6 11 mph 1014.2mb 85f 85f
7:36am 5 9 mph 1014.1mb 85f 85f
7:30am 2 10 mph 1014mb 85f 85f
7:24am 5 10 mph 1014mb 85f 84f
7:18am 3 6 mph 1014mb 85f 83f
7:12am 3 7 mph 1013.9mb 85f 83f
7:06am  -  8 mph 1013.8mb 85f 82f
7:00am 3 9 mph 1013.8mb 85f 82f
6:54am 5 8 mph 1013.7mb 85f 82f
6:48am 3 7 mph 1013.7mb 85f 81f
6:42am 2 7 mph 1013.6mb 85f 81f
6:36am 3 8 mph 1013.6mb 85f 81f
6:30am 5 9 mph 1013.5mb 85f 81f
6:24am 2 6 mph 1013.5mb 85f 81f
6:18am 5 7 mph 1013.5mb 85f 82f
6:12am 3 7 mph 1013.5mb 85f 81f
6:06am 3 7 mph 1013.4mb 85f 81f
6:00am 3 8 mph 1013.3mb 85f 81f
5:54am 3 8 mph 1013.3mb 85f 81f
5:48am 3 9 mph 1013.2mb 85f 81f
5:42am 2 7 mph 1013.2mb 85f 81f
5:36am 3 7 mph 1013.3mb 85f 81f
5:30am 2 6 mph 1013.2mb 85f 81f
5:24am 3 7 mph 1013.1mb 85f 81f
5:18am 3 6 mph 1013mb 85f 81f
5:12am 3 7 mph 1012.9mb 85f 81f
5:06am 2 5 mph 1012.9mb 85f 81f
5:00am 2 8 mph 1012.9mb 85f 81f
4:54am 5 8 mph 1012.9mb 85f 81f
4:48am 5 9 mph 1012.8mb 85f 81f
4:42am 3 8 mph 1012.8mb 85f 81f
4:36am 3 6 mph 1012.9mb 85f 80f
4:30am 2 7 mph 1012.9mb 85f 81f
4:24am 3 7 mph 1012.8mb 85f 81f
4:18am 2 6 mph 1012.8mb 85f 81f
4:12am 3 7 mph 1012.8mb 85f 81f
4:06am 2 6 mph 1012.9mb 85f 81f
4:00am 3 8 mph 1012.9mb 85f 81f
3:54am 2 9 mph 1012.8mb 85f 81f
3:48am 3 8 mph 1012.8mb 85f 81f
3:42am 3 6 mph 1012.8mb 85f 81f
3:36am 5 7 mph 1012.8mb 85f 81f
3:30am 3 7 mph 1012.9mb 85f 81f
3:24am 5 8 mph 1013mb 85f 81f
3:18am 2 5 mph 1013.1mb 85f 81f
3:12am 3 6 mph 1013.1mb 85f 81f
3:06am 1 7 mph 1013.1mb 85f 82f
3:00am 3 7 mph 1013.1mb 85f 81f
2:54am 3 7 mph 1013.1mb 85f 81f
2:48am 3 8 mph 1013.3mb 85f -
2:42am 2 6 mph 1013.3mb 85f -
2:36am 3 8 mph 1013.3mb 85f -
2:30am 2 6 mph 1013.4mb 85f 81f
2:24am 3 6 mph 1013.4mb 85f 81f
2:18am 3 7 mph 1013.5mb 85f 81f
2:12am  -  6 mph 1013.6mb 85f 81f
2:06am 2 6 mph 1013.7mb 85f 81f
2:00am 1 7 mph 1013.7mb 85f 81f
1:54am 1 6 mph 1013.8mb 85f 81f
1:48am 2 5 mph 1013.8mb - -
1:42am 2 6 mph 1013.8mb - -
1:36am 3 5 mph 1013.9mb - -
1:30am 1 5 mph 1014mb 85f 81f
1:24am 2 6 mph 1014.2mb 85f 81f
1:18am  -  5 mph 1014.3mb 85f 81f
1:12am 1 5 mph 1014.4mb 85f 81f
1:06am 1 5 mph 1014.5mb 85f 81f
1:00am 1 3 mph 1014.6mb 85f 81f
12:54am 2 5 mph 1014.8mb 85f 81f
12:48am 2 5 mph 1014.8mb 85f 81f
12:42am  -  3 mph 1014.8mb 85f 81f
12:36am  -  6 mph 1014.8mb 85f 82f
12:30am 2 7 mph 1014.8mb 85f 81f
12:24am 1 5 mph 1014.8mb 85f 81f
12:18am 2 5 mph 1014.7mb 85f 81f
12:12am 2 3 mph 1014.6mb 85f 81f
12:06am 2 3 mph 1014.7mb 85f 81f
12:00am  -  5 mph 1014.6mb 85f 81f
Sat 09/16 11:54pm 2 5 mph 1014.5mb 85f 81f
11:48pm 1 3 mph 1014.5mb 85f 81f
11:42pm 2 3 mph 1014.7mb 85f 81f
11:36pm 2 3 mph 1014.8mb 85f 82f
11:30pm  -  2 mph 1014.7mb 85f 82f
11:24pm 1 3 mph 1014.8mb 85f 82f
11:18pm 2 3 mph 1014.8mb 85f 81f
11:12pm 1 3 mph 1014.8mb 85f 81f
11:06pm 1 3 mph 1015mb 85f 81f
11:00pm  -  5 mph 1015.1mb 85f 81f
10:54pm 1 5 mph 1015.2mb 85f 81f
10:48pm 1 5 mph 1015.2mb 85f 81f
10:42pm 2 6 mph 1015.2mb 85f 81f
10:36pm 3 6 mph 1015.3mb 85f 81f
10:30pm 3 7 mph 1015.4mb 85f 81f
10:24pm 6 7 mph 1015.5mb 85f 81f
10:18pm 5 9 mph 1015.5mb 85f 81f
10:12pm 5 7 mph 1015.4mb 85f 82f
10:06pm 3 6 mph 1015.5mb 85f 82f
10:00pm 2 5 mph 1015.5mb 85f 82f
9:54pm 2 2 mph 1015.4mb 85f 82f
9:48pm  -  2 mph 1015.3mb 85f 82f
9:42pm 2 5 mph 1015.3mb 85f 82f
9:36pm  -  5 mph 1015.3mb 85f 82f
9:30pm 2 3 mph 1015.3mb 85f 82f
9:24pm 2 5 mph 1015.3mb 85f 82f
9:18pm 1 3 mph 1015.3mb 85f 82f
9:12pm 2 5 mph 1015.3mb 85f 83f
9:06pm 3 5 mph 1015.2mb 85f 82f
9:00pm 2 5 mph 1015.1mb 85f 82f
8:54pm 3 5 mph 1015.2mb 85f 82f
8:48pm 3 5 mph 1015.1mb 85f 82f
8:42pm 3 6 mph 1015.1mb 85f 82f
8:36pm 2 5 mph 1015.1mb 85f 82f
8:30pm 3 6 mph 1015mb 85f 82f
8:24pm 5 6 mph 1015mb 85f 82f
8:18pm 3 5 mph 1014.9mb 85f 82f
8:12pm 2 5 mph 1014.6mb 85f 83f
8:06pm 2 5 mph 1014.6mb 85f 83f
8:00pm 2 3 mph 1014.4mb 85f 83f
7:54pm 1 3 mph 1014.2mb 85f 83f
7:48pm  -  6 mph 1014.2mb 85f 84f
7:42pm 2 6 mph 1014.1mb 85f 84f
7:36pm 2 5 mph 1014.1mb 85f 84f
7:30pm  -  5 mph 1014.2mb 85f 84f
7:24pm 3 7 mph 1014.3mb 85f 84f
7:18pm 2 6 mph 1014.3mb 85f 84f
7:12pm 2 6 mph 1014.2mb 85f 84f
7:06pm 2 5 mph 1014.1mb 85f 84f
7:00pm 2 5 mph 1014mb 85f 84f
6:54pm 2 7 mph 1013.9mb 85f 84f
6:48pm 5 7 mph 1013.9mb 85f 84f
6:42pm 2 6 mph 1013.8mb 85f 84f
6:36pm 3 7 mph 1013.7mb 85f 85f
6:30pm 2 6 mph 1013.7mb 85f 85f
6:24pm 2 5 mph 1013.7mb 85f 85f
6:18pm 2 5 mph 1013.7mb 85f 85f
6:12pm 2 7 mph 1013.6mb 85f 85f
6:06pm 3 7 mph 1013.6mb 85f 86f
6:00pm 2 6 mph 1013.6mb 85f 86f
5:54pm 3 8 mph 1013.6mb 86f 86f
5:48pm 3 7 mph 1013.7mb 86f 85f
5:42pm 3 8 mph 1013.7mb 86f 85f
5:36pm 3 9 mph 1013.7mb 86f 85f
5:30pm 5 10 mph 1013.6mb 86f 85f
5:24pm 6 11 mph 1013.5mb 86f 85f
5:18pm 5 10 mph 1013.4mb 85f 85f
5:12pm 3 10 mph 1013.5mb 85f 85f
5:06pm 5 10 mph 1013.4mb 85f 86f
5:00pm 8 13 mph 1013.2mb 85f 86f
4:54pm 7 13 mph 1013.1mb 85f 87f
4:48pm 8 14 mph 1013.1mb 85f 87f
4:42pm 8 14 mph 1013mb 85f 87f
4:36pm 8 11 mph 1013.1mb 85f 87f
4:30pm 9 11 mph 1013mb 85f 87f
4:24pm 6 10 mph 1012.9mb 85f 88f
4:18pm 3 10 mph 1012.9mb 85f 89f
4:12pm 5 11 mph 1012.9mb 85f 88f
4:06pm 7 14 mph 1012.9mb 85f 88f
4:00pm 7 11 mph 1012.8mb 85f 88f
3:54pm 5 8 mph 1012.9mb 85f 89f
3:48pm 3 8 mph 1012.9mb - 89f
3:42pm 5 7 mph 1012.9mb - 89f
3:36pm 8 10 mph 1012.8mb - 88f
3:30pm 7 13 mph 1012.8mb 85f 88f
3:24pm 6 10 mph 1012.8mb 85f 89f
3:18pm 3 10 mph 1012.8mb 85f 89f
3:12pm 5 10 mph 1012.9mb 85f 89f
3:06pm 2 10 mph 1013.1mb 85f 89f
3:00pm 5 9 mph 1013.1mb 85f 89f
2:54pm 5 11 mph 1013.2mb 85f 89f
2:48pm 6 9 mph 1013.2mb 85f 89f
2:42pm 5 8 mph 1013.3mb 85f 89f
2:36pm 6 14 mph 1013.3mb 85f 88f
2:30pm 8 15 mph 1013.4mb 85f 88f
2:24pm 9 14 mph 1013.4mb 85f 87f
2:18pm 9 13 mph 1013.5mb 85f 87f
2:12pm 7 14 mph 1013.6mb 85f 88f
2:06pm 7 16 mph 1013.6mb 85f 88f
2:00pm 6 13 mph 1013.7mb 85f 88f
1:54pm 6 13 mph 1013.8mb 85f 88f
1:48pm 7 11 mph 1013.9mb 85f 88f
1:42pm 8 13 mph 1013.9mb 85f 88f
1:36pm 6 10 mph 1014.1mb 85f 88f
1:30pm 7 13 mph 1014.1mb 85f 88f
1:24pm 7 15 mph 1014.2mb 85f 88f
1:18pm 9 17 mph 1014.3mb 85f 87f
1:12pm 9 14 mph 1014.4mb 85f 87f
1:06pm 10 15 mph 1014.5mb 85f 87f
1:00pm 8 13 mph 1014.5mb 85f 88f
12:54pm 6 10 mph 1014.6mb 85f 89f
12:48pm 6 10 mph 1014.6mb 85f 89f
12:42pm 6 14 mph 1014.7mb 85f 88f
12:36pm 5 8 mph 1014.9mb 85f 88f
12:30pm 5 13 mph 1014.9mb 85f 88f
12:24pm 7 15 mph 1014.9mb 85f 87f
12:18pm 8 15 mph 1015.1mb 85f 87f
12:12pm 8 13 mph 1015.1mb 85f 87f
12:06pm 8 15 mph 1015.1mb 84f 87f
12:00pm 6 13 mph 1015.1mb 84f 88f
11:54am 5 13 mph 1015.3mb 84f 88f
11:48am 3 8 mph 1015.2mb 84f 88f
11:42am 5 10 mph 1015.2mb 84f 87f
11:36am 6 13 mph 1015.3mb 84f 88f
11:30am 5 8 mph 1015.4mb 84f 88f
11:24am 5 10 mph 1015.4mb 84f 88f
11:18am 6 11 mph 1015.3mb 84f 87f
11:12am 5 10 mph 1015.4mb 84f 87f
11:06am 6 9 mph 1015.5mb 84f 87f
11:00am 7 11 mph 1015.5mb 84f 87f
10:54am 7 13 mph 1015.5mb 84f 87f
10:48am 6 14 mph 1015.6mb 84f 87f
10:42am 3 13 mph 1015.6mb 84f 88f
10:36am 6 11 mph 1015.6mb 84f 87f
10:30am 3 13 mph 1015.7mb 84f 87f